This demonstration page uses our WeatherBlox Daily Observations layout. Learn more.

38.88101, -77.10428

Hourly Observations for May 26, 2019

Temp ( °F °C ) Dew Point ( °F °C ) Humidity (%) Winds ( mph kmh ) Pressure ( in mb ) Visibility ( mi km ) Precip ( " mm )
12:00 am 00:00 Mostly Cloudy 72 22.2 65 18.3 79 79 S 12 19 30.03 1017 10 16.09344 0.001 0.001
12:42 am 00:42 Cloudy with Thunderstorms 71 21.7 66 18.9 84 84 SSW 10 17 30.03 1017 10 16.09344 0.001 0.001
1:24 am 01:24 Mostly Cloudy 70 21.1 67 19.4 90 90 S 3 6 30.03 1017 10 16.09344 0 0
1:52 am 01:52 Mostly Cloudy 71 21.7 67 19.4 87 87 Calm 30 1016 10 16.09344 0 0
2:52 am 02:52 Cloudy 71 21.7 67 19.4 87 87 Calm 30 1016 10 16.09344 0 0
3:52 am 03:52 Mostly Cloudy 70 21.1 66 18.9 87 87 SW 3 6 29.97 1015 10 16.09344 0 0
4:52 am 04:52 Mostly Cloudy 70 21.1 66 18.9 87 87 SW 5 7 30 1016 10 16.09344 0 0
5:52 am 05:52 Partly Cloudy 69 20.6 66 18.9 90 90 SSW 5 7 30 1016 10 16.09344 0 0
6:52 am 06:52 Mostly Sunny 71 21.7 67 19.4 87 87 S 3 6 30 1016 10 16.09344 0 0
7:52 am 07:52 Partly Cloudy 73 22.8 68 20 84 84 S 5 7 30 1016 10 16.09344 0 0
8:52 am 08:52 Partly Cloudy 76 24.4 69 20.6 79 79 SSE 5 7 30.03 1017 10 16.09344 0 0
9:52 am 09:52 Partly Cloudy 80 26.7 69 20.6 69 69 SSE 7 11 30.03 1017 10 16.09344 0 0
10:52 am 10:52 Partly Cloudy 86 30 67 19.4 53 53 NNW 12 19 30 1016 10 16.09344 0 0
11:52 am 11:52 Partly Cloudy 88 31.1 68 20 52 52 NNW 9 15 30 1016 10 16.09344 0 0
12:52 pm 12:52 Mostly Cloudy 86 30 67 19.4 53 53 WSW 8 13 29.97 1015 10 16.09344 0 0
1:52 pm 13:52 Mostly Cloudy 89 31.7 68 20 50 50 W 13 20 29.97 1015 10 16.09344 0 0
2:52 pm 14:52 Mostly Cloudy with Light Rain 86 30 71 21.7 61 61 SE 8 13 29.94 1014 9 14.484096 0.01 0.254
3:52 pm 15:52 Mostly Cloudy 85 29.4 69 20.6 59 59 E 6 9 29.91 1013 9 14.484096 0.001 0.001
4:16 pm 16:16 Mostly Cloudy with Nearby Thunderstorms 87 30.6 69 20.6 55 55 E 5 7 29.94 1014 10 16.09344 0 0
4:31 pm 16:31 Mostly Cloudy 88 31.1 69 20.6 54 54 WSW 8 13 29.94 1014 10 16.09344 0 0
4:52 pm 16:52 Mostly Cloudy with Thunderstorms 90 32.2 62 16.7 39 39 W 10 17 29.91 1013 10 16.09344 0 0
5:08 pm 17:08 Mostly Cloudy 92 33.3 64 17.8 40 40 WNW 10 17 29.91 1013 10 16.09344 0 0
5:52 pm 17:52 Mostly Cloudy with Light Rain 87 30.6 66 18.9 50 50 VRB 6 9 29.91 1013 10 16.09344 0.001 0.001
6:01 pm 18:01 Windy with Storms Likely 83 28.3 67 19.4 59 59 W 24 39 29.91 1013 3 4.828032 0.001 0.001
6:03 pm 18:03 Mostly Cloudy with Heavy Thunderstorms 81 27.2 67 19.4 62 62 SW 15 24 29.91 1013 1.25 2.01168 0.05 1.27
6:08 pm 18:08 Mostly Cloudy with Heavy Thunderstorms 80 26.7 65 18.3 60 60 ESE 16 26 29.91 1013 0.75 1.207008 0.2 5.08
6:10 pm 18:10 Mostly Cloudy with Light Thunderstorms 80 26.7 65 18.3 60 60 SE 13 20 29.94 1014 4 6.437376 0.21 5.334
6:15 pm 18:15 Mostly Cloudy with Light Thunderstorms 78 25.6 68 20 71 71 ESE 16 26 29.91 1013 7 11.265408 0.21 5.334
6:18 pm 18:18 Mostly Cloudy with Light Rain 80 26.7 68 20 67 67 VRB 3 6 29.94 1014 10 16.09344 0.21 5.334
6:52 pm 18:52 Mostly Cloudy with Light Rain 80 26.7 68 20 67 67 SSW 7 11 29.91 1013 10 16.09344 0.21 5.334
7:52 pm 19:52 Mostly Cloudy 78 25.6 72 22.2 82 82 S 9 15 29.91 1013 10 16.09344 0.001 0.001
8:52 pm 20:52 Mostly Cloudy 76 24.4 72 22.2 88 88 S 7 11 29.88 1012 10 16.09344 0 0
9:52 pm 21:52 Mostly Cloudy 76 24.4 71 21.7 85 85 S 7 11 29.91 1013 10 16.09344 0 0
10:52 pm 22:52 Cloudy 79 26.1 66 18.9 65 65 NNW 12 19 29.91 1013 10 16.09344 0 0
11:52 pm 23:52 Cloudy 76 24.4 65 18.3 69 69 NNW 8 13 29.91 1013 10 16.09344 0.02 0.508

Powered by AerisWeather